This demonstration page uses our WeatherBlox Daily Observations layout. Learn more.

Left ArrowRight Arrow

38.80484, -77.04692

Hourly Observations for September 4, 2020

Temp ( °F °C ) Dew Point ( °F °C ) Humidity (%) Winds ( mph kmh ) Pressure ( in mb ) Visibility ( mi km ) Precip ( " mm )
12:52 am 00:52 Mostly Clear 77 25 75 23.9 94 94 VRB 3 6 29.82 1010 10 16 N/A
1:52 am 01:52 Clear 77 25 73 22.8 88 88 W 5 7 29.84 1011 10 16 N/A
2:52 am 02:52 Clear 77 25 70 21.1 79 79 NW 3 6 29.85 1011 10 16 N/A
3:52 am 03:52 Clear 74 23.3 70 21.1 88 88 SE 5 7 29.86 1011 10 16 N/A
4:52 am 04:52 Clear 74 23.3 70 21.1 88 88 N N/A 29.87 1011 10 16 N/A
5:52 am 05:52 Clear 73 22.8 70 21.1 90 90 WSW 6 9 29.88 1012 10 16 N/A
6:52 am 06:52 Sunny 73 22.8 70 21.1 90 90 SW 3 6 29.90 1012 10 16 N/A
7:52 am 07:52 Sunny 75 23.9 70 21.1 84 84 SSW 5 7 29.91 1013 10 16 N/A
8:52 am 08:52 Mostly Sunny 79 26.1 71 21.7 77 77 SSW 7 11 29.92 1013 10 16 N/A
9:52 am 09:52 Mostly Sunny 84 28.9 69 20.6 61 61 WSW 7 11 29.93 1014 10 16 N/A
10:52 am 10:52 Mostly Sunny 87 30.6 70 21.1 57 57 WNW 12 19 29.95 1014 10 16 N/A
11:52 am 11:52 Mostly Sunny 87 30.6 68 20 53 53 WNW 14 22 29.95 1014 10 16 N/A
12:52 pm 12:52 Mostly Sunny 88 31.1 67 19.4 50 50 WNW 8 13 29.94 1014 10 16 N/A
1:52 pm 13:52 Mostly Sunny 90 32.2 66 18.9 45 45 W 10 17 29.93 1014 10 16 N/A
2:52 pm 14:52 Mostly Cloudy 88 31.1 66 18.9 48 48 W 9 15 29.91 1013 10 16 N/A
3:52 pm 15:52 Cloudy 86 30 70 21.1 59 59 NW 12 19 29.92 1013 10 16 N/A
4:52 pm 16:52 Mostly Cloudy 84 28.9 69 20.6 61 61 NW 8 13 29.92 1013 10 16 0.00 0.00
5:52 pm 17:52 Cloudy 85 29.4 69 20.6 59 59 undefined N/A 29.93 1014 10 16 N/A
6:15 pm 18:15 Cloudy 85 29.4 69 20.6 59 59 W 6 9 29.94 1014 10 16 N/A
6:52 pm 18:52 Mostly Cloudy 81 27.2 73 22.8 77 77 S 15 24 29.95 1014 10 16 N/A
7:52 pm 19:52 Mostly Cloudy 79 26.1 73 22.8 82 82 S 10 17 29.97 1015 10 16 N/A
8:52 pm 20:52 Partly Cloudy 77 25 72 22.2 85 85 S 5 7 30.01 1016 10 16 N/A
9:30 pm 21:30 Mostly Clear 79 26.1 61 16.1 54 54 NNW 12 19 30.02 1017 10 16 N/A
9:52 pm 21:52 Mostly Clear 78 25.6 60 15.6 54 54 NNW 10 17 30.03 1017 10 16 N/A
10:52 pm 22:52 Mostly Cloudy 77 25 59 15 54 54 NNW 9 15 30.06 1018 10 16 N/A
11:52 pm 23:52 Partly Cloudy 72 22.2 60 15.6 66 66 NNW 8 13 30.08 1019 10 16 N/A

Powered by AerisWeather